Year,Month,Day,Hour,Minute,Value (Times are PST for temperature in C)
2019,04,02,00,00,9.60
2019,04,02,00,01,9.60
2019,04,02,00,02,9.60
2019,04,02,00,03,9.50
2019,04,02,00,04,9.50
2019,04,02,00,05,9.50
2019,04,02,00,06,9.50
2019,04,02,00,07,9.50
2019,04,02,00,08,9.40
2019,04,02,00,09,9.40
2019,04,02,00,10,9.40
2019,04,02,00,11,9.30
2019,04,02,00,12,9.30
2019,04,02,00,13,9.30
2019,04,02,00,14,9.30
2019,04,02,00,15,9.20
2019,04,02,00,16,9.20
2019,04,02,00,17,9.20
2019,04,02,00,18,9.20
2019,04,02,00,19,9.20
2019,04,02,00,20,9.20
2019,04,02,00,21,9.20
2019,04,02,00,22,9.10
2019,04,02,00,23,9.10
2019,04,02,00,24,9.10
2019,04,02,00,25,9.10
2019,04,02,00,26,9.20
2019,04,02,00,27,9.20
2019,04,02,00,28,9.20
2019,04,02,00,29,9.30
2019,04,02,00,30,9.30
2019,04,02,00,31,9.30
2019,04,02,00,32,9.40
2019,04,02,00,33,9.40
2019,04,02,00,34,9.40
2019,04,02,00,35,9.50
2019,04,02,00,36,9.50
2019,04,02,00,37,9.50
2019,04,02,00,38,9.50
2019,04,02,00,39,9.50
2019,04,02,00,40,9.50
2019,04,02,00,41,9.40
2019,04,02,00,42,9.40
2019,04,02,00,43,9.40
2019,04,02,00,44,9.30
2019,04,02,00,45,9.30
2019,04,02,00,46,9.30
2019,04,02,00,47,9.30
2019,04,02,00,48,9.30
2019,04,02,00,49,9.20
2019,04,02,00,50,9.20
2019,04,02,00,51,9.20
2019,04,02,00,52,9.20
2019,04,02,00,53,9.20
2019,04,02,00,54,9.20
2019,04,02,00,55,9.20
2019,04,02,00,56,9.20
2019,04,02,00,57,9.20
2019,04,02,00,58,9.20
2019,04,02,00,59,9.20
2019,04,02,01,00,9.20
2019,04,02,01,01,9.20
2019,04,02,01,02,9.20
2019,04,02,01,03,9.20
2019,04,02,01,04,9.20
2019,04,02,01,05,9.20
2019,04,02,01,06,9.20
2019,04,02,01,07,9.20
2019,04,02,01,08,9.10
2019,04,02,01,09,9.10
2019,04,02,01,10,9.10
2019,04,02,01,11,9.10
2019,04,02,01,12,9.10
2019,04,02,01,13,9.00
2019,04,02,01,14,9.00
2019,04,02,01,15,9.00
2019,04,02,01,16,9.00
2019,04,02,01,17,9.00
2019,04,02,01,18,9.10
2019,04,02,01,19,9.10
2019,04,02,01,20,9.10
2019,04,02,01,21,9.10
2019,04,02,01,22,9.10
2019,04,02,01,23,9.10
2019,04,02,01,24,9.10
2019,04,02,01,25,9.20
2019,04,02,01,26,9.20
2019,04,02,01,27,9.20
2019,04,02,01,28,9.20
2019,04,02,01,29,9.20
2019,04,02,01,30,9.20
2019,04,02,01,31,9.20
2019,04,02,01,32,9.20
2019,04,02,01,33,9.30
2019,04,02,01,34,9.30
2019,04,02,01,35,9.30
2019,04,02,01,36,9.40
2019,04,02,01,37,9.40
2019,04,02,01,38,9.40
2019,04,02,01,39,9.40
2019,04,02,01,40,9.40
2019,04,02,01,41,9.50
2019,04,02,01,42,9.50
2019,04,02,01,43,9.50
2019,04,02,01,44,9.50
2019,04,02,01,45,9.40
2019,04,02,01,46,9.40
2019,04,02,01,47,9.50
2019,04,02,01,48,9.50
2019,04,02,01,49,9.50
2019,04,02,01,50,9.60
2019,04,02,01,51,9.60
2019,04,02,01,52,9.70
2019,04,02,01,53,9.70
2019,04,02,01,54,9.70
2019,04,02,01,55,9.70
2019,04,02,01,56,9.70
2019,04,02,01,57,9.70
2019,04,02,01,58,9.80
2019,04,02,01,59,9.80
2019,04,02,02,00,9.80
2019,04,02,02,01,9.90
2019,04,02,02,02,9.90
2019,04,02,02,03,9.90
2019,04,02,02,04,9.90
2019,04,02,02,05,9.90
2019,04,02,02,06,10.00
2019,04,02,02,07,10.10
2019,04,02,02,08,10.10
2019,04,02,02,09,10.10
2019,04,02,02,10,10.10
2019,04,02,02,11,10.10
2019,04,02,02,12,10.10
2019,04,02,02,13,10.10
2019,04,02,02,14,10.10
2019,04,02,02,15,10.20
2019,04,02,02,16,10.20
2019,04,02,02,17,10.10
2019,04,02,02,18,10.10
2019,04,02,02,19,10.10
2019,04,02,02,20,10.10
2019,04,02,02,21,10.10
2019,04,02,02,22,10.10
2019,04,02,02,23,10.10
2019,04,02,02,24,10.10
2019,04,02,02,25,10.10
2019,04,02,02,26,10.10
2019,04,02,02,27,10.10
2019,04,02,02,28,10.10
2019,04,02,02,29,10.20
2019,04,02,02,30,10.20
2019,04,02,02,31,10.20
2019,04,02,02,32,10.30
2019,04,02,02,33,10.30
2019,04,02,02,34,10.40
2019,04,02,02,35,10.40
2019,04,02,02,36,10.40
2019,04,02,02,37,10.50
2019,04,02,02,38,10.60
2019,04,02,02,39,10.60
2019,04,02,02,40,10.60
2019,04,02,02,41,10.60
2019,04,02,02,42,10.70
2019,04,02,02,43,10.70
2019,04,02,02,44,10.70
2019,04,02,02,45,10.70
2019,04,02,02,46,10.80
2019,04,02,02,47,10.80
2019,04,02,02,48,10.80
2019,04,02,02,49,10.80
2019,04,02,02,50,10.90
2019,04,02,02,51,10.90
2019,04,02,02,52,10.90
2019,04,02,02,53,10.90
2019,04,02,02,54,11.00
2019,04,02,02,55,11.10
2019,04,02,02,56,11.10
2019,04,02,02,57,11.10
2019,04,02,02,58,11.10
2019,04,02,02,59,11.10
2019,04,02,03,00,11.10
2019,04,02,03,01,11.10
2019,04,02,03,02,11.20
2019,04,02,03,03,11.20
2019,04,02,03,04,11.20
2019,04,02,03,05,11.20
2019,04,02,03,06,11.20
2019,04,02,03,07,11.30
2019,04,02,03,08,11.30
2019,04,02,03,09,11.30
2019,04,02,03,10,11.30
2019,04,02,03,11,11.40
2019,04,02,03,12,11.40
2019,04,02,03,13,11.40
2019,04,02,03,14,11.40
2019,04,02,03,15,11.40
2019,04,02,03,16,11.40
2019,04,02,03,17,11.40
2019,04,02,03,18,11.40
2019,04,02,03,19,11.40
2019,04,02,03,20,11.60
2019,04,02,03,21,11.60
2019,04,02,03,22,11.60
2019,04,02,03,23,11.60
2019,04,02,03,24,11.60
2019,04,02,03,25,11.50
2019,04,02,03,26,11.40
2019,04,02,03,27,11.40
2019,04,02,03,28,11.40
2019,04,02,03,29,11.40
2019,04,02,03,30,11.50
2019,04,02,03,31,11.60
2019,04,02,03,32,11.60
2019,04,02,03,33,11.60
2019,04,02,03,34,11.60
2019,04,02,03,35,11.60
2019,04,02,03,36,11.70
2019,04,02,03,37,11.70
2019,04,02,03,38,11.80
2019,04,02,03,39,11.80
2019,04,02,03,40,11.80
2019,04,02,03,41,11.80
2019,04,02,03,42,11.80
2019,04,02,03,43,11.80
2019,04,02,03,44,11.80
2019,04,02,03,45,11.90
2019,04,02,03,46,11.90
2019,04,02,03,47,11.90
2019,04,02,03,48,11.90
2019,04,02,03,49,11.90
2019,04,02,03,50,11.90
2019,04,02,03,51,11.90
2019,04,02,03,52,11.90
2019,04,02,03,53,11.90
2019,04,02,03,54,11.90
2019,04,02,03,55,11.90
2019,04,02,03,56,11.90
2019,04,02,03,57,11.90
2019,04,02,03,58,11.90
2019,04,02,03,59,11.90
2019,04,02,04,00,11.90
2019,04,02,04,01,11.90
2019,04,02,04,02,11.90
2019,04,02,04,03,11.90
2019,04,02,04,04,11.90
2019,04,02,04,05,11.90
2019,04,02,04,06,11.80
2019,04,02,04,07,11.80
2019,04,02,04,08,11.80
2019,04,02,04,09,11.80
2019,04,02,04,10,11.80
2019,04,02,04,11,11.80
2019,04,02,04,12,11.80
2019,04,02,04,13,11.70
2019,04,02,04,14,11.70
2019,04,02,04,15,11.60
2019,04,02,04,16,11.60
2019,04,02,04,17,11.60
2019,04,02,04,18,11.60
2019,04,02,04,19,11.50
2019,04,02,04,20,11.40
2019,04,02,04,21,11.40
2019,04,02,04,22,11.40
2019,04,02,04,23,11.40
2019,04,02,04,24,11.30
2019,04,02,04,25,11.30
2019,04,02,04,26,11.20
2019,04,02,04,27,11.20
2019,04,02,04,28,11.20
2019,04,02,04,29,11.20
2019,04,02,04,30,11.10
2019,04,02,04,31,11.10
2019,04,02,04,32,11.10
2019,04,02,04,33,11.10
2019,04,02,04,34,11.10
2019,04,02,04,35,11.10
2019,04,02,04,36,10.90
2019,04,02,04,37,10.90
2019,04,02,04,38,10.90
2019,04,02,04,39,10.90
2019,04,02,04,40,10.90
2019,04,02,04,41,10.90
2019,04,02,04,42,10.90
2019,04,02,04,43,10.90
2019,04,02,04,44,10.90
2019,04,02,04,45,11.10
2019,04,02,04,46,11.10
2019,04,02,04,47,11.10
2019,04,02,04,48,11.20
2019,04,02,04,49,11.20
2019,04,02,04,50,11.20
2019,04,02,04,51,11.30
2019,04,02,04,52,11.40
2019,04,02,04,53,11.40
2019,04,02,04,54,11.40
2019,04,02,04,55,11.40
2019,04,02,04,56,11.50
2019,04,02,04,57,11.60
2019,04,02,04,58,11.60
2019,04,02,04,59,11.60
2019,04,02,05,00,11.60
2019,04,02,05,01,11.60
2019,04,02,05,02,11.60
2019,04,02,05,03,11.60
2019,04,02,05,04,11.60
2019,04,02,05,05,11.60
2019,04,02,05,06,11.60
2019,04,02,05,07,11.60
2019,04,02,05,08,11.60
2019,04,02,05,09,11.60
2019,04,02,05,10,11.70
2019,04,02,05,11,11.70
2019,04,02,05,12,11.70
2019,04,02,05,13,11.60
2019,04,02,05,14,11.60
2019,04,02,05,15,11.60
2019,04,02,05,16,11.60
2019,04,02,05,17,11.60
2019,04,02,05,18,11.60
2019,04,02,05,19,11.60
2019,04,02,05,20,11.70
2019,04,02,05,21,11.70
2019,04,02,05,22,11.70
2019,04,02,05,23,11.70
2019,04,02,05,24,11.70
2019,04,02,05,25,11.70
2019,04,02,05,26,11.70
2019,04,02,05,27,11.70
2019,04,02,05,28,11.70
2019,04,02,05,29,11.70
2019,04,02,05,30,11.70
2019,04,02,05,31,11.70
2019,04,02,05,32,11.70
2019,04,02,05,33,11.70
2019,04,02,05,34,11.80
2019,04,02,05,35,11.80
2019,04,02,05,36,11.80
2019,04,02,05,37,11.80
2019,04,02,05,38,11.80
2019,04,02,05,39,11.80
2019,04,02,05,40,11.80
2019,04,02,05,41,11.80
2019,04,02,05,42,11.80
2019,04,02,05,43,11.80
2019,04,02,05,44,11.80
2019,04,02,05,45,11.80
2019,04,02,05,46,11.80
2019,04,02,05,47,11.80
2019,04,02,05,48,11.80
2019,04,02,05,49,11.80
2019,04,02,05,50,11.80
2019,04,02,05,51,11.80
2019,04,02,05,52,11.80
2019,04,02,05,53,11.80
2019,04,02,05,54,11.80
2019,04,02,05,55,11.80
2019,04,02,05,56,11.80
2019,04,02,05,57,11.80
2019,04,02,05,58,11.80
2019,04,02,05,59,11.80
2019,04,02,06,00,11.80
2019,04,02,06,01,11.70
2019,04,02,06,02,11.70
2019,04,02,06,03,11.60
2019,04,02,06,04,11.60
2019,04,02,06,05,11.60
2019,04,02,06,06,11.60
2019,04,02,06,07,11.50
2019,04,02,06,08,11.40
2019,04,02,06,09,11.40
2019,04,02,06,10,11.40
2019,04,02,06,11,11.40
2019,04,02,06,12,11.40
2019,04,02,06,13,11.40
2019,04,02,06,14,11.40
2019,04,02,06,15,11.40
2019,04,02,06,16,11.30
2019,04,02,06,17,11.30
2019,04,02,06,18,11.30
2019,04,02,06,19,11.20
2019,04,02,06,20,11.20
2019,04,02,06,21,11.20
2019,04,02,06,22,11.10
2019,04,02,06,23,11.10
2019,04,02,06,24,11.10
2019,04,02,06,25,10.90
2019,04,02,06,26,10.90
2019,04,02,06,27,10.90
2019,04,02,06,28,10.80
2019,04,02,06,29,10.80
2019,04,02,06,30,10.80
2019,04,02,06,31,10.70
2019,04,02,06,32,10.70
2019,04,02,06,33,10.70
2019,04,02,06,34,10.60
2019,04,02,06,35,10.60
2019,04,02,06,36,10.60
2019,04,02,06,37,10.60
2019,04,02,06,38,10.60
2019,04,02,06,39,10.60
2019,04,02,06,40,10.60
2019,04,02,06,41,10.60
2019,04,02,06,42,10.60
2019,04,02,06,43,10.50
2019,04,02,06,44,10.40
2019,04,02,06,45,10.40
2019,04,02,06,46,10.40
2019,04,02,06,47,10.40
2019,04,02,06,48,10.40
2019,04,02,06,49,10.40
2019,04,02,06,50,10.40
2019,04,02,06,51,10.40
2019,04,02,06,52,10.40
2019,04,02,06,53,10.40
2019,04,02,06,54,10.40
2019,04,02,06,55,10.40
2019,04,02,06,56,10.40
2019,04,02,06,57,10.30
2019,04,02,06,58,10.30
2019,04,02,06,59,10.30
2019,04,02,07,00,10.30
2019,04,02,07,01,10.30
2019,04,02,07,02,10.30
2019,04,02,07,03,10.30
2019,04,02,07,04,10.20
2019,04,02,07,05,10.20
2019,04,02,07,06,10.30
2019,04,02,07,07,10.30
2019,04,02,07,08,10.30
2019,04,02,07,09,10.30
2019,04,02,07,10,10.30
2019,04,02,07,11,10.30
2019,04,02,07,12,10.30
2019,04,02,07,13,10.30
2019,04,02,07,14,10.40
2019,04,02,07,15,10.40
2019,04,02,07,16,10.40
2019,04,02,07,17,10.40
2019,04,02,07,18,10.40
2019,04,02,07,19,10.40
2019,04,02,07,20,10.40
2019,04,02,07,21,10.40
2019,04,02,07,22,10.50
2019,04,02,07,23,10.60
2019,04,02,07,24,10.60
2019,04,02,07,25,10.60
2019,04,02,07,26,10.60
2019,04,02,07,27,10.70
2019,04,02,07,28,10.80
2019,04,02,07,29,10.80
2019,04,02,07,30,10.90
2019,04,02,07,31,10.90
2019,04,02,07,32,10.90
2019,04,02,07,33,10.90
2019,04,02,07,34,11.00
2019,04,02,07,35,11.10
2019,04,02,07,36,11.10
2019,04,02,07,37,11.20
2019,04,02,07,38,11.30
2019,04,02,07,39,11.40
2019,04,02,07,40,11.40
2019,04,02,07,41,11.40
2019,04,02,07,42,11.40
2019,04,02,07,43,11.50
2019,04,02,07,44,11.60
2019,04,02,07,45,11.60
2019,04,02,07,46,11.70
2019,04,02,07,47,11.70
2019,04,02,07,48,11.80
2019,04,02,07,49,11.80
2019,04,02,07,50,11.90
2019,04,02,07,51,12.00
2019,04,02,07,52,12.00
2019,04,02,07,53,12.10
2019,04,02,07,54,12.20
2019,04,02,07,55,12.30
2019,04,02,07,56,12.30
2019,04,02,07,57,12.30
2019,04,02,07,58,12.30
2019,04,02,07,59,12.30
2019,04,02,08,00,12.40
2019,04,02,08,01,12.40
2019,04,02,08,02,12.50
2019,04,02,08,03,12.50
2019,04,02,08,04,12.50
2019,04,02,08,05,12.60
2019,04,02,08,06,12.60
2019,04,02,08,07,12.60
2019,04,02,08,08,12.70
2019,04,02,08,09,12.70
2019,04,02,08,10,12.80
2019,04,02,08,11,12.80
2019,04,02,08,12,12.90
2019,04,02,08,13,12.90
2019,04,02,08,14,13.00
2019,04,02,08,15,13.00
2019,04,02,08,16,13.10
2019,04,02,08,17,13.10
2019,04,02,08,18,13.10
2019,04,02,08,19,13.10
2019,04,02,08,20,13.20
2019,04,02,08,21,13.20
2019,04,02,08,22,13.20
2019,04,02,08,23,13.30
2019,04,02,08,24,13.30
2019,04,02,08,25,13.30
2019,04,02,08,26,13.40
2019,04,02,08,27,13.40
2019,04,02,08,28,13.50
2019,04,02,08,29,13.50
2019,04,02,08,30,13.50
2019,04,02,08,31,13.50
2019,04,02,08,32,13.50
2019,04,02,08,33,13.50
2019,04,02,08,34,13.60
2019,04,02,08,35,13.60
2019,04,02,08,36,13.60
2019,04,02,08,37,13.60
2019,04,02,08,38,13.70
2019,04,02,08,39,13.70
2019,04,02,08,40,13.70
2019,04,02,08,41,13.80
2019,04,02,08,42,13.80
2019,04,02,08,43,13.90
2019,04,02,08,44,14.00
2019,04,02,08,45,14.00
2019,04,02,08,46,14.10
2019,04,02,08,47,14.20
2019,04,02,08,48,14.20
2019,04,02,08,49,14.20
2019,04,02,08,50,14.30
2019,04,02,08,51,14.30
2019,04,02,08,52,14.40
2019,04,02,08,53,14.40
2019,04,02,08,54,14.50
2019,04,02,08,55,14.50
2019,04,02,08,56,14.40
2019,04,02,08,57,14.40
2019,04,02,08,58,14.40
2019,04,02,08,59,14.50
2019,04,02,09,00,14.50
2019,04,02,09,01,14.50
2019,04,02,09,02,14.50
2019,04,02,09,03,14.50
2019,04,02,09,04,14.50
2019,04,02,09,05,14.60
2019,04,02,09,06,14.60
2019,04,02,09,07,14.60
2019,04,02,09,08,14.60
2019,04,02,09,09,14.70
2019,04,02,09,10,14.70
2019,04,02,09,11,14.70
2019,04,02,09,12,14.70
2019,04,02,09,13,14.60
2019,04,02,09,14,14.60
2019,04,02,09,15,14.60
2019,04,02,09,16,14.60
2019,04,02,09,17,14.60
2019,04,02,09,18,14.70
2019,04,02,09,19,14.70
2019,04,02,09,20,14.70
2019,04,02,09,21,14.70
2019,04,02,09,22,14.70
2019,04,02,09,23,14.80
2019,04,02,09,24,14.90
2019,04,02,09,25,14.90
2019,04,02,09,26,15.00
2019,04,02,09,27,15.00
2019,04,02,09,28,15.00
2019,04,02,09,29,15.10
2019,04,02,09,30,15.20
2019,04,02,09,31,15.10
2019,04,02,09,32,15.10
2019,04,02,09,33,15.20
2019,04,02,09,34,15.20
2019,04,02,09,35,15.20
2019,04,02,09,36,15.20
2019,04,02,09,37,15.20
2019,04,02,09,38,15.20
2019,04,02,09,39,15.20
2019,04,02,09,40,15.30
2019,04,02,09,41,15.30
2019,04,02,09,42,15.30
2019,04,02,09,43,15.30
2019,04,02,09,44,15.40
2019,04,02,09,45,15.40
2019,04,02,09,46,15.40
2019,04,02,09,47,15.30
2019,04,02,09,48,15.30
2019,04,02,09,49,15.30
2019,04,02,09,50,15.30
2019,04,02,09,51,15.40
2019,04,02,09,52,15.50
2019,04,02,09,53,15.50
2019,04,02,09,54,15.50
2019,04,02,09,55,15.50
2019,04,02,09,56,15.60
2019,04,02,09,57,15.60
2019,04,02,09,58,15.70
2019,04,02,09,59,15.80
2019,04,02,10,00,15.80
2019,04,02,10,01,15.80
2019,04,02,10,02,15.80
2019,04,02,10,03,15.80
2019,04,02,10,04,15.80
2019,04,02,10,05,15.70
2019,04,02,10,06,15.60
2019,04,02,10,07,15.60
2019,04,02,10,08,15.70
2019,04,02,10,09,15.70
2019,04,02,10,10,15.70
2019,04,02,10,11,15.80
2019,04,02,10,12,15.90
2019,04,02,10,13,16.00
2019,04,02,10,14,16.10
2019,04,02,10,15,16.20
2019,04,02,10,16,16.30
2019,04,02,10,17,16.30
2019,04,02,10,18,16.30
2019,04,02,10,19,16.20
2019,04,02,10,20,16.20
2019,04,02,10,21,16.20
2019,04,02,10,22,16.10
2019,04,02,10,23,15.90
2019,04,02,10,24,15.80
2019,04,02,10,25,15.80
2019,04,02,10,26,15.80
2019,04,02,10,27,15.70
2019,04,02,10,28,15.60
2019,04,02,10,29,15.50
2019,04,02,10,30,15.50
2019,04,02,10,31,15.50
2019,04,02,10,32,15.50
2019,04,02,10,33,15.50
2019,04,02,10,34,15.60
2019,04,02,10,35,15.60
2019,04,02,10,36,15.60
2019,04,02,10,37,15.60
2019,04,02,10,38,15.60
2019,04,02,10,39,15.60
2019,04,02,10,40,15.70
2019,04,02,10,41,15.80
2019,04,02,10,42,15.90
2019,04,02,10,43,16.00
2019,04,02,10,44,16.10
2019,04,02,10,45,16.10
2019,04,02,10,46,16.20
2019,04,02,10,47,16.30
2019,04,02,10,48,16.40
2019,04,02,10,49,16.40
2019,04,02,10,50,16.40
2019,04,02,10,51,16.40
2019,04,02,10,52,16.50
2019,04,02,10,53,16.60
2019,04,02,10,54,16.50
2019,04,02,10,55,16.50
2019,04,02,10,56,16.50
2019,04,02,10,57,16.40
2019,04,02,10,58,16.40
2019,04,02,10,59,16.40
2019,04,02,11,00,16.40
2019,04,02,11,01,16.40
2019,04,02,11,02,16.40
2019,04,02,11,03,16.40
2019,04,02,11,04,16.40
2019,04,02,11,05,16.40
2019,04,02,11,06,16.40
2019,04,02,11,07,16.40
2019,04,02,11,08,16.40
2019,04,02,11,09,16.40
2019,04,02,11,10,16.30
2019,04,02,11,11,16.30
2019,04,02,11,12,16.30
2019,04,02,11,13,16.40
2019,04,02,11,14,16.40
2019,04,02,11,15,16.40
2019,04,02,11,16,16.40
2019,04,02,11,17,16.40
2019,04,02,11,18,16.40
2019,04,02,11,19,16.40
2019,04,02,11,20,16.40
2019,04,02,11,21,16.30
2019,04,02,11,22,16.30
2019,04,02,11,23,16.30
2019,04,02,11,24,16.30
2019,04,02,11,25,16.40
2019,04,02,11,26,16.40
2019,04,02,11,27,16.30
2019,04,02,11,28,16.30
2019,04,02,11,29,16.30
2019,04,02,11,30,16.30
2019,04,02,11,31,16.30
2019,04,02,11,32,16.30
2019,04,02,11,33,16.30
2019,04,02,11,34,16.30
2019,04,02,11,35,16.30
2019,04,02,11,36,16.30
2019,04,02,11,37,16.30
2019,04,02,11,38,16.30
2019,04,02,11,39,16.30
2019,04,02,11,40,16.20
2019,04,02,11,41,16.20
2019,04,02,11,42,16.20
2019,04,02,11,43,16.20
2019,04,02,11,44,16.30
2019,04,02,11,45,16.20
2019,04,02,11,46,16.20
2019,04,02,11,47,16.20
2019,04,02,11,48,16.20
2019,04,02,11,49,16.30
2019,04,02,11,50,16.30
2019,04,02,11,51,16.20
2019,04,02,11,52,16.20
2019,04,02,11,53,16.20
2019,04,02,11,54,16.30
2019,04,02,11,55,16.40
2019,04,02,11,56,16.40
2019,04,02,11,57,16.40
2019,04,02,11,58,16.40
2019,04,02,11,59,16.50
2019,04,02,12,00,16.60
2019,04,02,12,01,16.70
2019,04,02,12,02,16.70
2019,04,02,12,03,16.70
2019,04,02,12,04,16.70
2019,04,02,12,05,16.80
2019,04,02,12,06,16.90
2019,04,02,12,07,16.90
2019,04,02,12,08,16.90
2019,04,02,12,09,16.80
2019,04,02,12,10,16.80
2019,04,02,12,11,16.70
2019,04,02,12,12,16.60
2019,04,02,12,13,16.50
2019,04,02,12,14,16.50
2019,04,02,12,15,16.60
2019,04,02,12,16,16.50
2019,04,02,12,17,16.60
2019,04,02,12,18,16.50
2019,04,02,12,19,16.40
2019,04,02,12,20,16.40
2019,04,02,12,21,16.40
2019,04,02,12,22,16.40
2019,04,02,12,23,16.40
2019,04,02,12,24,16.40
2019,04,02,12,25,16.40
2019,04,02,12,26,16.40
2019,04,02,12,27,16.40
2019,04,02,12,28,16.40
2019,04,02,12,29,16.40
2019,04,02,12,30,16.40
2019,04,02,12,31,16.40
2019,04,02,12,32,16.40
2019,04,02,12,33,16.40
2019,04,02,12,34,16.40
2019,04,02,12,35,16.30
2019,04,02,12,36,16.30
2019,04,02,12,37,16.30
2019,04,02,12,38,16.20
2019,04,02,12,39,16.20
2019,04,02,12,40,16.30
2019,04,02,12,41,16.40
2019,04,02,12,42,16.40
2019,04,02,12,43,16.50
2019,04,02,12,44,16.70
2019,04,02,12,45,16.70
2019,04,02,12,46,16.70
2019,04,02,12,47,16.70
2019,04,02,12,48,16.70
2019,04,02,12,49,16.80
2019,04,02,12,50,16.80
2019,04,02,12,51,16.80
2019,04,02,12,52,16.80
2019,04,02,12,53,16.90
2019,04,02,12,54,17.00
2019,04,02,12,55,16.90
2019,04,02,12,56,16.90
2019,04,02,12,57,16.80
2019,04,02,12,58,16.80
2019,04,02,12,59,16.90
2019,04,02,13,00,17.00
2019,04,02,13,01,17.00
2019,04,02,13,02,17.00
2019,04,02,13,03,17.00
2019,04,02,13,04,17.00
2019,04,02,13,05,17.00
2019,04,02,13,06,16.90
2019,04,02,13,07,16.90
2019,04,02,13,08,16.90
2019,04,02,13,09,16.90
2019,04,02,13,10,16.90
2019,04,02,13,11,16.90
2019,04,02,13,12,17.00
2019,04,02,13,13,17.00
2019,04,02,13,14,17.10
2019,04,02,13,15,17.10
2019,04,02,13,16,17.20
2019,04,02,13,17,17.20
2019,04,02,13,18,17.10
2019,04,02,13,19,17.10
2019,04,02,13,20,17.10
2019,04,02,13,21,17.10
2019,04,02,13,22,17.00
2019,04,02,13,23,17.00
2019,04,02,13,24,17.00
2019,04,02,13,25,17.00
2019,04,02,13,26,17.00
2019,04,02,13,27,17.10
2019,04,02,13,28,17.10
2019,04,02,13,29,17.00
2019,04,02,13,30,17.00
2019,04,02,13,31,17.00
2019,04,02,13,32,17.10
2019,04,02,13,33,17.00
2019,04,02,13,34,17.00
2019,04,02,13,35,16.90
2019,04,02,13,36,16.90
2019,04,02,13,37,16.90
2019,04,02,13,38,16.90
2019,04,02,13,39,17.00
2019,04,02,13,40,17.00
2019,04,02,13,41,16.90
2019,04,02,13,42,16.90
2019,04,02,13,43,16.90
2019,04,02,13,44,16.90
2019,04,02,13,45,16.80
2019,04,02,13,46,16.80
2019,04,02,13,47,16.80
2019,04,02,13,48,16.80
2019,04,02,13,49,16.80
2019,04,02,13,50,16.70
2019,04,02,13,51,16.70
2019,04,02,13,52,16.70
2019,04,02,13,53,16.70
2019,04,02,13,54,16.70
2019,04,02,13,55,16.70
2019,04,02,13,56,16.70
2019,04,02,13,57,16.70
2019,04,02,13,58,16.70
2019,04,02,13,59,16.70
2019,04,02,14,00,16.70
2019,04,02,14,01,16.70
2019,04,02,14,02,16.70
2019,04,02,14,03,16.70
2019,04,02,14,04,16.60
2019,04,02,14,05,16.60
2019,04,02,14,06,16.60
2019,04,02,14,07,16.60
2019,04,02,14,08,16.60
2019,04,02,14,09,16.60
2019,04,02,14,10,16.60
2019,04,02,14,11,16.70
2019,04,02,14,12,16.70
2019,04,02,14,13,16.80
2019,04,02,14,14,16.90
2019,04,02,14,15,16.90
2019,04,02,14,16,17.00
2019,04,02,14,17,17.00
2019,04,02,14,18,17.00
2019,04,02,14,19,17.00
2019,04,02,14,20,17.10
2019,04,02,14,21,17.10
2019,04,02,14,22,17.00
2019,04,02,14,23,17.00
2019,04,02,14,24,16.90
2019,04,02,14,25,16.70
2019,04,02,14,26,16.50
2019,04,02,14,27,16.40
2019,04,02,14,28,16.30
2019,04,02,14,29,16.30
2019,04,02,14,30,16.20
2019,04,02,14,31,16.10
2019,04,02,14,32,15.90
2019,04,02,14,33,15.80
2019,04,02,14,34,15.70
2019,04,02,14,35,15.60
2019,04,02,14,36,15.60
2019,04,02,14,37,15.60
2019,04,02,14,38,15.60
2019,04,02,14,39,15.60
2019,04,02,14,40,15.50
2019,04,02,14,41,15.50
2019,04,02,14,42,15.50
2019,04,02,14,43,15.50
2019,04,02,14,44,15.50
2019,04,02,14,45,15.50
2019,04,02,14,46,15.40
2019,04,02,14,47,15.30
2019,04,02,14,48,15.30
2019,04,02,14,49,15.30
2019,04,02,14,50,15.30
2019,04,02,14,51,15.30
2019,04,02,14,52,15.40
2019,04,02,14,53,15.50
2019,04,02,14,54,15.60
2019,04,02,14,55,15.60
2019,04,02,14,56,15.60
2019,04,02,14,57,15.60
2019,04,02,14,58,15.70
2019,04,02,14,59,15.70
2019,04,02,15,00,15.80
2019,04,02,15,01,15.80
2019,04,02,15,02,15.80
2019,04,02,15,03,15.80
2019,04,02,15,04,15.80
2019,04,02,15,05,15.80
2019,04,02,15,06,15.80
2019,04,02,15,07,15.80
2019,04,02,15,08,15.80
2019,04,02,15,09,15.80
2019,04,02,15,10,15.90
2019,04,02,15,11,15.90
2019,04,02,15,12,15.90
2019,04,02,15,13,15.90
2019,04,02,15,14,15.90
2019,04,02,15,15,15.80
2019,04,02,15,16,15.80
2019,04,02,15,17,15.80
2019,04,02,15,18,15.80
2019,04,02,15,19,15.80
2019,04,02,15,20,15.80
2019,04,02,15,21,15.80
2019,04,02,15,22,15.80
2019,04,02,15,23,15.80
2019,04,02,15,24,15.90
2019,04,02,15,25,15.80
2019,04,02,15,26,15.80
2019,04,02,15,27,15.70
2019,04,02,15,28,15.70
2019,04,02,15,29,15.70
2019,04,02,15,30,15.70
2019,04,02,15,31,15.70
2019,04,02,15,32,15.70
2019,04,02,15,33,15.70
2019,04,02,15,34,15.80
2019,04,02,15,35,15.80
2019,04,02,15,36,15.80
2019,04,02,15,37,15.80
2019,04,02,15,38,15.80
2019,04,02,15,39,15.80
2019,04,02,15,40,15.80
2019,04,02,15,41,15.80
2019,04,02,15,42,15.90
2019,04,02,15,43,15.90
2019,04,02,15,44,15.90
2019,04,02,15,45,16.00
2019,04,02,15,46,16.10
2019,04,02,15,47,16.00
2019,04,02,15,48,16.00
2019,04,02,15,49,15.90
2019,04,02,15,50,16.00
2019,04,02,15,51,16.10
2019,04,02,15,52,16.10
2019,04,02,15,53,16.10
2019,04,02,15,54,16.10
2019,04,02,15,55,16.20
2019,04,02,15,56,16.20
2019,04,02,15,57,16.30
2019,04,02,15,58,16.30
2019,04,02,15,59,16.40
2019,04,02,16,00,16.40
2019,04,02,16,01,16.50
2019,04,02,16,02,16.60
2019,04,02,16,03,16.70
2019,04,02,16,04,16.70
2019,04,02,16,05,16.70
2019,04,02,16,06,16.80
2019,04,02,16,07,16.80
2019,04,02,16,08,16.80
2019,04,02,16,09,16.90
2019,04,02,16,10,16.90
2019,04,02,16,11,16.90
2019,04,02,16,12,16.80
2019,04,02,16,13,16.80
2019,04,02,16,14,16.80
2019,04,02,16,15,16.70
2019,04,02,16,16,16.70
2019,04,02,16,17,16.70
2019,04,02,16,18,16.70
2019,04,02,16,19,16.50
2019,04,02,16,20,16.40
2019,04,02,16,21,16.40
2019,04,02,16,22,16.30
2019,04,02,16,23,16.30
2019,04,02,16,24,16.20
2019,04,02,16,25,16.10
2019,04,02,16,26,16.10
2019,04,02,16,27,16.00
2019,04,02,16,28,15.90
2019,04,02,16,29,15.80
2019,04,02,16,30,15.80
2019,04,02,16,31,15.70
2019,04,02,16,32,15.70
2019,04,02,16,33,15.60
2019,04,02,16,34,15.60
2019,04,02,16,35,15.50
2019,04,02,16,36,15.40
2019,04,02,16,37,15.40
2019,04,02,16,38,15.30
2019,04,02,16,39,15.20
2019,04,02,16,40,15.20
2019,04,02,16,41,15.10
2019,04,02,16,42,15.10
2019,04,02,16,43,15.10
2019,04,02,16,44,15.00
2019,04,02,16,45,15.00
2019,04,02,16,46,15.10
2019,04,02,16,47,15.10
2019,04,02,16,48,15.10
2019,04,02,16,49,15.10
2019,04,02,16,50,15.10
2019,04,02,16,51,15.10
2019,04,02,16,52,15.10
2019,04,02,16,53,15.10
2019,04,02,16,54,15.10
2019,04,02,16,55,15.20
2019,04,02,16,56,15.20
2019,04,02,16,57,15.20
2019,04,02,16,58,15.20
2019,04,02,16,59,15.20
2019,04,02,17,00,15.30
2019,04,02,17,01,15.30
2019,04,02,17,02,15.30
2019,04,02,17,03,15.30
2019,04,02,17,04,15.20
2019,04,02,17,05,15.20
2019,04,02,17,06,15.20
2019,04,02,17,07,15.20
2019,04,02,17,08,15.20
2019,04,02,17,09,15.20
2019,04,02,17,10,15.20
2019,04,02,17,11,15.20
2019,04,02,17,12,15.20
2019,04,02,17,13,15.20
2019,04,02,17,14,15.20
2019,04,02,17,15,15.20
2019,04,02,17,16,15.20
2019,04,02,17,17,15.20
2019,04,02,17,18,15.10
2019,04,02,17,19,15.10
2019,04,02,17,20,15.10
2019,04,02,17,21,15.10
2019,04,02,17,22,15.10
2019,04,02,17,23,15.10
2019,04,02,17,24,15.00